Regional Weather Roundup
Issued by NWS Green Bay, WI

Home | Current Version | Previous Version | Graphics & Text | Print | Product List | Glossary Off
Versions: 1 2 3 4 5 6 7 8 9 10 11 12 13 14 15 16 17 18 19 20 21 22 23 24 25 26 27 28 29 30 31 32 33 34 35 36 37 38 39 40 41 42 43 44 45 46 47 48 49 50

000
ASUS43 KGRB 222111
RWRGRB

NORTH-CENTRAL AND NORTHEAST WISCONSIN REGIONAL WEATHER ROUNDUP
NATIONAL WEATHER SERVICE GREEN BAY WI
400 PM CDT SUN APR 22 2018

WIZ005-009-010>012-018-019-222200-
NORTH CENTRAL WISCONSIN

CITY           SKY/WX    TMP DP  RH WIND       PRES   REMARKS
IRONWOOD       FAIR      60  23  24 NW3       30.27F
MANITOWISH WTR FAIR      56  21  25 S6        30.27F
ARBOR VITAE    FAIR      59  21  22 S7        30.27F
EAGLE RIVER    FAIR      58  14  18 SW7       30.27F
LAND O LAKES   FAIR      61  10  13 S6        30.28F
RHINELANDER    FAIR      60  24  25 S8        30.29F
PHILLIPS       FAIR      59  28  30 S9        30.27F
ANTIGO         FAIR      56  30  37 S6        30.31F
TOMAHAWK       FAIR      57  22  25 CALM      30.29F
MERRILL          N/A     60  26  27 S8        30.30F
$$

WIZ013-073-222200-
NORTHEAST WISCONSIN

CITY           SKY/WX    TMP DP  RH WIND       PRES   REMARKS
IRON MOUNTAIN  FAIR      63  21  20 S6        30.27F
MARINETTE      FAIR      57  22  25 SE12      30.35F
OCONTO         FAIR      55  22  27 SE9       30.34S
$$

WIZ017-030-035>037-045-222200-
CENTRAL WISCONSIN

CITY           SKY/WX    TMP DP  RH WIND       PRES   REMARKS
MEDFORD        FAIR      55  31  40 S6        30.30F
WAUSAU         FAIR      59  21  23 E6        30.29F
MOSINEE        MOSUNNY   57  25  28 SE10      30.31F
MARSHFIELD     FAIR      56  27  32 SE7       30.30F
WISC RAPIDS    FAIR      58  20  22 VRB7G16   30.31F
STEVENS POINT  FAIR      54  16  22 SE7       30.32F
WAUPACA        FAIR      59  13  16 E8        30.33F
SHAWANO        FAIR      58  22  25 SE7       30.33F
CLINTONVILLE   FAIR      56  16  21 S5        30.33F
WAUTOMA        FAIR      58  20  22 SE8       30.31F
$$

WIZ038-039-048-051-222200-
FOX VALLEY

CITY           SKY/WX    TMP DP  RH WIND       PRES   REMARKS
NWS GREEN BAY  FAIR      56  27  32 SE3       30.34F
APPLETON       MOSUNNY   57  19  23 CALM      30.32F
OSHKOSH        FAIR      57  27  31 NE7       30.32F
FOND DU LAC    FAIR      56  28  34 NE8       30.32F
$$

WIZ022-050-052-222200-
EAST CENTRAL WISCONSIN

CITY           SKY/WX    TMP DP  RH WIND       PRES   REMARKS
EPHRAIM        FAIR      56  17  21 SE6       30.34S
WASHINGTON ISL FAIR      56  14  19 SW3       30.34F
STURGEON BAY   FAIR      56  22  26 SW7       30.35F
MANITOWOC      FAIR      54  28  36 S5        30.35F
SHEBOYGAN      FAIR      56  30  37 VRB5      30.33F
$$

LMZ563-521-522-541>543-222200-
LAKESHORE

STATION/POSITION TIME  TEMP    WIND        PRES    VSBY  WAVE
                       AIR SEA DIR/SP/G                  HT/PER
                 (UTC) (F)     (DEG/KT/KT) (MB)    (MI)  (FT/S)
SHEBOYGAN LKSHOR 2100   43      10/  4/  4 1027.7F
KEWAUNEE LKSHORE 2042   48      CALM  /  1 1027.0F
NORTHPORT PIER   2040   42                 1027.8F
SISTER BAY LKSHO 2027   55     350/  5/  6   N/A
MENOMINEE LKSHOR 2036   50     150/  5/  5 1027.2F
$$



USA.gov is the U.S. government's official web portal to all federal, state and local government web resources and services.